User: anonymous   Login
Location: ?
(35.4214°N, 139.3011°E)
Time: 02:20:41
(UTC+00:00)
Language:

CZ-2C R/B - Orbit

View from above orbital plane
View from above orbital plane
View from above satellite
View from above satellite

Ground track
Ground track

The orbit data is extracted from the following two-line orbital elements,

1 31114U 07010B   20272.44070359 +.00000064 +00000-0 +48921-4 0  9991
2 31114 098.2498 118.3471 0059158 328.0089 031.7502 14.19332031697619
Epoch (UTC): 28 September 2020 10:34:36
Eccentricity: 0.0059158
inclination: 98.2498°
perigee height: 785 km
apogee height: 870 km
right ascension of ascending node: 118.3471°
argument of perigee: 328.0089°
revolutions per day: 14.19332031
mean anomaly at epoch: 31.7502°
orbit number at epoch: 69761

The dashed part of the orbit path shows where the satellite is in the earth's shadow,  

DLR